Date String (YYYY-MM-DD hh:mm:ss) UTC,Instrument flags,Ambient pressure (hPa),Sample flow (lpm),Bypass flow (lpm),Sample temperature (°C),Ambient temperature (°C),ASC tube jacket temperature (°C),LED temperature (°C),Box temperature (°C),Sample RH (%),Span deviation,Mass concentration (μg/m³),Mass concentration (μg/m³),Mass concentration (μg/m³)
DateTimeUTC,F1_M11,P_M11,Q1_M11,Q2_M11,T1_M11,T2_M11,T3_M11,T4_M11,T5_M11,U1_M11,ZSPAN_M11,X0_M11,X2_M11,X1_M11
2023-04-14 08:00:00,,0818.9,4.99,0.00,28.0,26.2,00.0,36.3,29.5,12.5,0000.0,0040.15,0005.75,0002.20
2023-04-14 08:01:00,,0818.8,5.00,0.00,28.0,26.2,00.0,36.3,29.5,12.5,0000.0,0038.38,0005.61,0002.17
2023-04-14 08:02:00,,0819.1,5.01,0.00,27.9,26.2,00.0,36.3,29.5,12.5,0000.0,0038.46,0005.58,0002.16
2023-04-14 08:03:00,,0819.1,4.99,0.00,27.9,26.2,00.0,36.3,29.5,12.5,0000.0,0038.38,0005.49,0002.16
2023-04-14 08:04:00,,0818.8,4.99,0.00,27.9,26.2,00.0,36.3,29.5,12.6,0000.0,0036.92,0005.48,0002.16
2023-04-14 08:05:00,,0818.9,5.00,0.00,27.9,26.2,00.0,36.3,29.5,12.5,0000.0,0034.36,0005.41,0002.15
2023-04-14 08:06:00,,0818.9,5.02,0.00,27.9,26.2,00.0,36.3,29.5,12.4,0000.0,0032.71,0005.37,0002.15
2023-04-14 08:07:00,,0818.9,4.99,0.00,27.9,26.2,00.0,36.3,29.5,12.4,0000.0,0030.44,0005.33,0002.13
2023-04-14 08:08:00,,0818.9,4.99,0.00,27.9,26.2,00.0,36.3,29.5,12.5,0000.0,0029.13,0005.33,0002.11
2023-04-14 08:09:00,,0818.8,5.00,0.00,27.9,26.2,00.0,36.3,29.5,12.5,0000.0,0029.89,0005.30,0002.10
2023-04-14 08:10:00,,0818.8,5.01,0.00,27.9,26.2,00.0,36.3,29.5,12.5,0000.0,0029.10,0005.27,0002.07
2023-04-14 08:11:00,,0818.8,5.00,0.00,27.9,26.2,00.0,36.3,29.5,12.5,0000.0,0028.56,0005.26,0002.08
2023-04-14 08:12:00,,0818.8,5.00,0.00,27.9,26.2,00.0,36.3,29.5,12.4,0000.0,0030.07,0005.24,0002.08
2023-04-14 08:13:00,,0818.8,5.00,0.00,27.9,26.2,00.0,36.3,29.5,12.4,0000.0,0029.60,0005.17,0002.08
2023-04-14 08:14:00,,0818.8,5.00,0.00,27.9,26.2,00.0,36.3,29.5,12.4,0000.0,0027.32,0005.11,0002.07
2023-04-14 08:15:00,,0818.8,5.00,0.00,27.9,26.2,00.0,36.3,29.5,12.5,0000.0,0026.39,0005.09,0002.06
2023-04-14 08:16:00,,0818.8,5.01,0.00,27.9,26.2,00.0,36.3,29.5,12.5,0000.0,0027.29,0005.10,0002.07
2023-04-14 08:17:00,,0818.8,5.00,0.00,28.0,26.2,00.0,36.3,29.5,12.4,0000.0,0027.18,0005.04,0002.05
2023-04-14 08:18:00,,0818.8,5.00,0.00,27.9,26.2,00.0,36.3,29.5,12.4,0000.0,0026.48,0004.97,0002.05
2023-04-14 08:19:00,,0818.8,4.99,0.00,27.9,26.2,00.0,36.3,29.5,12.5,0000.0,0025.48,0004.81,0002.03
2023-04-14 08:20:00,,0818.7,5.00,0.00,27.9,26.2,00.0,36.3,29.5,12.5,0000.0,0024.99,0004.74,0002.03
2023-04-14 08:21:00,,0818.7,5.00,0.00,27.9,26.2,00.0,36.3,29.5,12.5,0000.0,0024.74,0004.68,0002.03
2023-04-14 08:22:00,,0818.8,5.01,0.00,27.9,26.2,00.0,36.3,29.5,12.5,0000.0,0023.48,0004.59,0002.00
2023-04-14 08:23:00,,0818.7,5.01,0.00,27.9,26.2,00.0,36.3,29.5,12.5,0000.0,0022.02,0004.50,0001.98
2023-04-14 08:24:00,,0818.7,4.99,0.00,27.9,26.2,00.0,36.3,29.5,12.5,0000.0,0021.35,0004.48,0001.97
2023-04-14 08:25:00,,0818.8,5.00,0.00,27.9,26.2,00.0,36.3,29.5,12.5,0000.0,0020.81,0004.50,0001.99
2023-04-14 08:26:00,,0818.8,4.99,0.00,27.9,26.2,00.0,36.3,29.5,12.5,0000.0,0020.98,0004.46,0001.97
2023-04-14 08:27:00,,0818.8,5.01,0.00,27.9,26.2,00.0,36.3,29.5,12.5,0000.0,0020.41,0004.44,0001.96
2023-04-14 08:28:00,,0818.8,4.99,0.00,27.9,26.2,00.0,36.3,29.5,12.6,0000.0,0021.30,0004.45,0001.96
2023-04-14 08:29:00,,0818.8,5.00,0.00,27.9,26.2,00.0,36.3,29.5,12.6,0000.0,0021.04,0004.44,0001.98
2023-04-14 08:30:00,,0818.8,5.00,0.00,27.9,26.2,00.0,36.3,29.5,12.6,0000.0,0020.64,0004.44,0001.99
2023-04-14 08:31:00,,0818.8,5.00,0.00,27.9,26.2,00.0,36.3,29.5,12.6,0000.0,0019.63,0004.40,0001.99
2023-04-14 08:32:00,,0818.8,5.00,0.00,27.9,26.1,00.0,36.3,29.4,12.6,0000.0,0018.79,0004.39,0002.00
2023-04-14 08:33:00,,0818.8,4.99,0.00,27.9,26.1,00.0,36.3,29.4,12.6,0000.0,0017.75,0004.38,0002.01
2023-04-14 08:34:00,,0818.8,5.00,0.00,27.9,26.1,00.0,36.2,29.4,12.7,0000.0,0017.09,0004.39,0002.02
2023-04-14 08:35:00,,0818.8,4.99,0.00,27.9,26.1,00.0,36.2,29.4,12.7,0000.0,0016.32,0004.32,0002.02
2023-04-14 08:36:00,,0818.7,5.00,0.00,27.9,26.1,00.0,36.2,29.4,12.7,0000.0,0016.01,0004.25,0002.02
2023-04-14 08:37:00,,0818.7,5.01,0.00,27.9,26.0,00.0,36.2,29.4,12.7,0000.0,0015.24,0004.17,0002.02
2023-04-14 08:38:00,,0818.7,5.01,0.00,27.8,26.0,00.0,36.2,29.4,12.7,0000.0,0014.63,0004.12,0002.03
2023-04-14 08:39:00,,0818.7,5.00,0.00,27.8,26.0,00.0,36.2,29.4,12.8,0000.0,0013.01,0004.03,0002.02
2023-04-14 08:40:00,,0818.7,5.00,0.00,27.8,26.0,00.0,36.2,29.4,12.8,0000.0,0012.42,0003.98,0002.01
2023-04-14 08:41:00,,0818.8,4.99,0.00,27.8,26.0,00.0,36.2,29.4,12.9,0000.0,0013.50,0003.94,0002.01
2023-04-14 08:42:00,,0818.7,5.00,0.00,27.8,26.0,00.0,36.2,29.3,12.9,0000.0,0013.32,0003.93,0002.00
2023-04-14 08:43:00,,0818.7,5.01,0.00,27.8,26.0,00.0,36.2,29.3,12.9,0000.0,0012.40,0003.84,0002.00
2023-04-14 08:44:00,,0818.8,5.01,0.00,27.8,26.0,00.0,36.2,29.3,12.9,0000.0,0012.54,0003.76,0001.98
2023-04-14 08:45:00,,0818.7,5.01,0.00,27.8,26.0,00.0,36.2,29.3,12.9,0000.0,0012.37,0003.73,0001.98
2023-04-14 08:46:00,,0818.8,4.99,0.00,27.8,26.0,00.0,36.2,29.3,12.9,0000.0,0012.77,0003.72,0001.98
2023-04-14 08:47:00,,0818.7,4.99,0.00,27.8,26.0,00.0,36.2,29.3,13.0,0000.0,0012.56,0003.68,0001.98
2023-04-14 08:48:00,,0818.7,5.00,0.00,27.8,26.0,00.0,36.2,29.3,13.0,0000.0,0012.45,0003.68,0001.97
2023-04-14 08:49:00,,0818.7,5.00,0.00,27.8,26.0,00.0,36.2,29.3,13.0,0000.0,0012.50,0003.67,0001.95
2023-04-14 08:50:00,,0818.7,5.01,0.00,27.8,26.0,00.0,36.1,29.3,13.0,0000.0,0012.56,0003.68,0001.97
2023-04-14 08:51:00,,0818.7,5.01,0.00,27.8,26.0,00.0,36.1,29.3,13.1,0000.0,0012.75,0003.68,0001.97
2023-04-14 08:52:00,,0818.7,5.00,0.00,27.8,26.0,00.0,36.1,29.3,13.1,0000.0,0011.18,0003.67,0001.97
2023-04-14 08:53:00,,0818.7,4.99,0.00,27.8,26.0,00.0,36.1,29.3,13.1,0000.0,0010.90,0003.65,0001.97
2023-04-14 08:54:00,,0818.7,5.00,0.00,27.7,26.0,00.0,36.1,29.3,13.1,0000.0,0010.59,0003.62,0001.96
2023-04-14 08:55:00,,0818.7,5.00,0.00,27.7,26.0,00.0,36.1,29.3,13.1,0000.0,0011.57,0003.61,0001.94
2023-04-14 08:56:00,,0818.7,5.01,0.00,27.7,25.9,00.0,36.1,29.3,13.1,0000.0,0010.88,0003.62,0001.95
2023-04-14 08:57:00,,0818.7,5.01,0.00,27.7,25.9,00.0,36.1,29.2,13.1,0000.0,0010.26,0003.61,0001.96
2023-04-14 08:58:00,,0818.7,4.99,0.00,27.7,25.9,00.0,36.1,29.2,13.1,0000.0,0009.91,0003.60,0001.97
2023-04-14 08:59:00,,0818.7,4.99,0.00,27.7,25.9,00.0,36.1,29.2,13.1,0000.0,0010.00,0003.58,0001.98
